COSMOS 2251 DEB

Satellite information

Favourite Embed

Satellite Type and Status

DEBRISIN ORBIT

Key statistics

Satellite COSMOS 2251 DEB at a glance.

Uptime

11709

Days in orbit

Revolutions

≈ 14.6

Per day

Orbit

LEO

Low Earth Orbit

Inclination

74.0

Latest

Satellite identification and parameters

Extended collection of information and parameters for COSMOS 2251 DEB.

Object identification

Identified? True

Debris? True

Object name: COSMOS 2251 DEB

International designator: 1993-036YF

Object number (NORAD): 34685

Object ID (CCSDS): 34685

Country: COMMONWEALTH OF INDEPENDENT STATES (CIS)

Current information (Y/N): Y

RCS size: SMALL

Orbital parameters

Period: 98.911 minutes

Inclination: 74.0308 deg

SMA: 7084.75 km

Apoapsis: 718.12 km

Periapsis: 695.109 km

RAAN: 90.4462 deg

Eccentricy: 0.001624

Argument of periapsis: 229.77 deg

Mean anomaly: 200.4817 deg

Mean motion: 14.55847857 rev/day

Mean motion (dot): 0.0000246 rev/day2

B* drag term: 0.00056643 1/REarth

Two-line elements (TLE)

Creation date: July 6, 2025, 10:56 p.m.

Reference frame: TEME

Reference center: EARTH

Epoch: July 6, 2025, 7:59 p.m. UTC

TLE line 0: 0 COSMOS 2251 DEB

TLE line 1: 1 34685U 93036YF 25187.83279968 .00002460 00000-0 56643-3 0 9991

TLE line 2: 2 34685 74.0308 90.4462 0016240 229.7700 200.4817 14.55847857862704

Live tracking on map

Real-time ground track for satellite COSMOS 2251 DEB.

In-orbit conjunctions

A list of the most updated potential collisions computed for object COSMOS 2251 DEB.

Target Orbit TCA Probability of collision Miss distance Type
CZ-6A DEB LEO 2024-11-20 09:28:33 0.0002252598 220.0 (m) DEBRIS
CZ-6A DEB LEO 2024-11-10 07:06:52 0.000231114 900.0 (m) DEBRIS
CZ-6A DEB SSO 2024-11-06 17:06:06 0.0001067701 35.0 (m) DEBRIS
COSMOS 2251 DEB LEO 2024-09-26 14:37:03 0.002451103 13.0 (m) DEBRIS

Associated space launch

Military communications satellite. Destroyed in a collision with Iridium 33.

COSMOS 2251 DEB was lifted into orbit during the mission ‘Kosmos-3M | Strela-2M 51’, on board a Kosmos-3M space rocket.

The launch took place on June 16, 1993, 4:17 a.m. from 132/1 (132L).

For more information about the launch, click the button.

Launch to space Kosmos-3M | Strela-2M 51
Kosmos-3M | Strela-2M 51

Agency: N/A

Status: Launch Successful

Launch date: June 16, 1993, 4:17 a.m. UTC

Rocket: Kosmos-3M

Launch pad: 132/1 (132L)

Location: Plesetsk Cosmodrome, Russian Federation

...

Latest news about this satellite

There are no fresh news available about this satellite. Check back as we update our databases every day.


Newsletter sign-up

Weekly statistics, charts and insights to help you stay on top of the space industry.